Location: Altmatt
(47.1333°N, 8.7000°E)
Time: 19:14:46
(UTC+00:00)

Cosmos 923 Rocket - Pass Details

Date: 13 July 2020
Orbit: 757 x 786 km, 74.0° (Epoch: 11 August)

Event Time Altitude Azimuth Distance (km) Brightness Sun altitude
Rises 20:24:59 0° 198° (SSW) 3,224 6.9 -9.5°
Reaches altitude 10° 20:27:20 10° 197° (SSW) 2,306 6.2 -9.7°
Maximum altitude 20:32:35 83° 110° (ESE) 787 4.0 -10.3°
Drops below altitude 10° 20:37:55 10° 24° (NNE) 2,342 6.9 -10.9°
Sets 20:40:19 0° 23° (NNE) 3,278 7.6 -11.2°
